Terminal Aerodrome Forecast
Issued by NWS Paducah, KY

Home | Current Version | Previous Version | Text Only | Print | Product List | Glossary On
Versions: 1 2 3 4 5 6 7 8 9 10 11 12 13 14 15 16 17 18 19 20 21
000
FTUS43 KPAH 212300
TAFEVV
TAF
KEVV 212320Z 2200/2224 23006KT P6SM SCT250
     FM220800 22004KT P6SM SCT250
      TEMPO 2209/2212 5SM BR
     FM221400 24008KT P6SM SCT060=

USA.gov is the U.S. government's official web portal to all federal, state and local government web resources and services.